CSN260 VHHH-ROAH

Flight info

Callsign CSN260
Flight time 1h 51m
Altitude 41000
Route DALOL V631 ENVAR M750 KUDOS R595 MJC Y57 VELNO
Aircraft A359/H-SDE2E3GHIJ3J4J5LM1ORWXY/LB1D1

Departure

Time 2026-05-05 15:50
Airport Hong Kong International Airport (VHHH)

Arrival

Time 2026-05-05 17:41
Airport Naha International Airport (ROAH)
Time Latitude Longitude Altitude Speed Heading
2026-05-05 15:09 22.31544 113.92415 38 ft 0 kts 206°
2026-05-05 15:34 22.31561 113.92423 37 ft 4 kts 206°
2026-05-05 15:34 22.31585 113.92436 38 ft 4 kts 210°
2026-05-05 15:34 22.31608 113.92451 38 ft 4 kts 212°
2026-05-05 15:35 22.31619 113.92459 38 ft 1 kts 212°
2026-05-05 15:37 22.31619 113.92458 38 ft 1 kts 216°
2026-05-05 15:37 22.31618 113.92450 38 ft 1 kts 259°
2026-05-05 15:37 22.31627 113.92415 38 ft 9 kts 288°
2026-05-05 15:37 22.31624 113.92317 38 ft 17 kts 255°
2026-05-05 15:38 22.31581 113.92177 38 ft 19 kts 251°
2026-05-05 15:38 22.31570 113.92076 38 ft 10 kts 302°
2026-05-05 15:38 22.31602 113.92001 38 ft 11 kts 276°
2026-05-05 15:38 22.31590 113.91910 38 ft 13 kts 253°
2026-05-05 15:39 22.31556 113.91808 38 ft 16 kts 250°
2026-05-05 15:39 22.31516 113.91683 38 ft 19 kts 251°
2026-05-05 15:39 22.31469 113.91536 39 ft 22 kts 250°
2026-05-05 15:39 22.31414 113.91369 39 ft 25 kts 251°
2026-05-05 15:40 22.31354 113.91183 39 ft 27 kts 250°
2026-05-05 15:40 22.31293 113.90995 39 ft 27 kts 250°
2026-05-05 15:40 22.31231 113.90802 39 ft 28 kts 251°
2026-05-05 15:40 22.31178 113.90638 39 ft 24 kts 251°
2026-05-05 15:41 22.31122 113.90459 38 ft 26 kts 251°
2026-05-05 15:41 22.31070 113.90299 38 ft 19 kts 251°
2026-05-05 15:41 22.31022 113.90151 38 ft 22 kts 251°
2026-05-05 15:41 22.30977 113.90011 38 ft 8 kts 250°
2026-05-05 15:42 22.30962 113.89947 38 ft 8 kts 271°
2026-05-05 15:42 22.30982 113.89911 38 ft 0 kts 323°
2026-05-05 15:42 22.30982 113.89910 38 ft 0 kts 323°
2026-05-05 15:43 22.30988 113.89906 38 ft 5 kts 324°
2026-05-05 15:43 22.31044 113.89875 36 ft 10 kts 335°
2026-05-05 15:43 22.31103 113.89881 36 ft 8 kts 30°
2026-05-05 15:43 22.31132 113.89930 36 ft 9 kts 69°
2026-05-05 15:44 22.31134 113.89936 36 ft 0 kts 70°
2026-05-05 15:50 22.31142 113.89959 34 ft 22 kts 69°
2026-05-05 15:50 22.31289 113.90421 37 ft 106 kts 71°
2026-05-05 15:50 22.31615 113.91419 41 ft 173 kts 70°
2026-05-05 15:50 22.32059 113.92684 743 ft 182 kts 69°
2026-05-05 15:51 22.32536 113.93957 1636 ft 192 kts 68°
2026-05-05 15:51 22.33043 113.95352 2399 ft 204 kts 72°
2026-05-05 15:51 22.33428 113.96850 3257 ft 209 kts 79°
2026-05-05 15:51 22.33680 113.98409 4180 ft 213 kts 81°
2026-05-05 15:52 22.33921 114.00013 5007 ft 220 kts 81°
2026-05-05 15:52 22.34174 114.01669 5831 ft 226 kts 81°
2026-05-05 15:52 22.34369 114.03375 6687 ft 231 kts 89°
2026-05-05 15:52 22.34154 114.05101 7586 ft 235 kts 109°
2026-05-05 15:53 22.33375 114.06650 8491 ft 238 kts 130°
2026-05-05 15:53 22.32117 114.07840 9290 ft 248 kts 149°
2026-05-05 15:53 22.30487 114.08600 9898 ft 263 kts 167°
2026-05-05 15:53 22.28643 114.08814 10713 ft 270 kts 181°
2026-05-05 15:54 22.26696 114.08788 11252 ft 292 kts 183°
2026-05-05 15:54 22.24579 114.08732 11655 ft 316 kts 183°
2026-05-05 15:54 22.22299 114.08685 12058 ft 338 kts 182°
2026-05-05 15:54 22.19894 114.08668 12648 ft 351 kts 180°
2026-05-05 15:55 22.17469 114.09151 13375 ft 361 kts 160°
2026-05-05 15:55 22.15340 114.10625 14121 ft 371 kts 137°
2026-05-05 15:55 22.13828 114.12899 14847 ft 378 kts 118°
2026-05-05 15:55 22.12648 114.15461 15479 ft 386 kts 116°
2026-05-05 15:56 22.11466 114.18101 16003 ft 395 kts 117°
2026-05-05 15:56 22.10241 114.20777 16632 ft 400 kts 117°
2026-05-05 15:56 22.08985 114.23473 17256 ft 405 kts 117°
2026-05-05 15:56 22.07475 114.26049 17822 ft 409 kts 131°
2026-05-05 15:57 22.05368 114.28102 18446 ft 410 kts 144°
2026-05-05 15:57 22.03061 114.29935 19052 ft 413 kts 146°
2026-05-05 15:57 22.00721 114.31758 19650 ft 417 kts 146°
2026-05-05 15:57 21.98479 114.33451 20237 ft 421 kts 146°
2026-05-05 15:58 21.96139 114.35284 20800 ft 425 kts 145°
2026-05-05 15:58 21.93786 114.37160 21392 ft 428 kts 145°
2026-05-05 15:58 21.91375 114.39071 21966 ft 432 kts 146°
2026-05-05 15:58 21.88948 114.41001 22529 ft 436 kts 144°
2026-05-05 15:59 21.86681 114.43193 23069 ft 442 kts 134°
2026-05-05 15:59 21.84844 114.45868 23586 ft 448 kts 121°
2026-05-05 15:59 21.83574 114.48949 24089 ft 454 kts 109°
2026-05-05 15:59 21.82680 114.52222 24588 ft 458 kts 106°
2026-05-05 16:00 21.81843 114.55547 25105 ft 463 kts 106°
2026-05-05 16:00 21.80993 114.58904 25632 ft 467 kts 106°
2026-05-05 16:00 21.80130 114.62283 26204 ft 471 kts 106°
2026-05-05 16:00 21.79254 114.65696 26734 ft 475 kts 106°
2026-05-05 16:01 21.78364 114.69145 27249 ft 480 kts 106°
2026-05-05 16:01 21.77464 114.72622 27765 ft 485 kts 106°
2026-05-05 16:01 21.76553 114.76127 28274 ft 489 kts 106°
2026-05-05 16:01 21.75634 114.79665 28762 ft 493 kts 106°
2026-05-05 16:02 21.74772 114.83249 29250 ft 497 kts 102°
2026-05-05 16:02 21.74369 114.86933 29905 ft 496 kts 92°
2026-05-05 16:02 21.74256 114.90634 30557 ft 495 kts 90°
2026-05-05 16:02 21.74242 114.94331 31206 ft 493 kts 89°
2026-05-05 16:03 21.74269 114.98012 31863 ft 492 kts 89°
2026-05-05 16:03 21.74304 115.01692 32489 ft 490 kts 89°
2026-05-05 16:03 21.74331 115.05351 33063 ft 489 kts 89°
2026-05-05 16:03 21.74347 115.09007 33621 ft 488 kts 89°
2026-05-05 16:04 21.74353 115.12653 34171 ft 487 kts 89°
2026-05-05 16:04 21.74354 115.15059 34514 ft 486 kts 89°
2026-05-05 16:04 21.74351 115.18690 35023 ft 485 kts 89°
2026-05-05 16:04 21.74346 115.23491 35672 ft 484 kts 89°
2026-05-05 16:05 21.74341 115.27099 36127 ft 482 kts 89°
2026-05-05 16:05 21.74331 115.30709 36547 ft 483 kts 89°
2026-05-05 16:05 21.74322 115.34317 36953 ft 482 kts 90°
2026-05-05 16:05 21.74313 115.37918 37399 ft 480 kts 90°
2026-05-05 16:06 21.74306 115.40340 37740 ft 478 kts 90°
2026-05-05 16:06 21.74296 115.43860 38212 ft 475 kts 90°
2026-05-05 16:06 21.74284 115.47403 38610 ft 473 kts 90°
2026-05-05 16:06 21.74272 115.50934 38913 ft 473 kts 90°
2026-05-05 16:07 21.74260 115.54470 39201 ft 473 kts 90°
2026-05-05 16:07 21.74246 115.58008 39486 ft 473 kts 90°
2026-05-05 16:07 21.74230 115.61543 39782 ft 472 kts 90°
2026-05-05 16:07 21.74217 115.65074 40069 ft 472 kts 90°
2026-05-05 16:08 21.74204 115.68597 40328 ft 472 kts 90°
2026-05-05 16:08 21.74191 115.72123 40575 ft 471 kts 90°
2026-05-05 16:08 21.74176 115.75656 40769 ft 473 kts 90°
2026-05-05 16:08 21.74161 115.79199 40875 ft 476 kts 90°
2026-05-05 16:09 21.74144 115.82776 40959 ft 480 kts 90°
2026-05-05 16:09 21.74108 115.90028 41003 ft 490 kts 90°
2026-05-05 16:10 21.74068 115.97445 41000 ft 502 kts 90°
2026-05-05 16:10 21.74023 116.05026 41002 ft 512 kts 90°
2026-05-05 16:11 21.73973 116.12710 41000 ft 514 kts 90°
2026-05-05 16:12 21.73863 116.28084 40998 ft 514 kts 90°
2026-05-05 16:13 21.73707 116.47226 40997 ft 513 kts 90°
2026-05-05 16:13 21.73638 116.54903 40998 ft 513 kts 90°
2026-05-05 16:14 21.73492 116.70037 40999 ft 488 kts 90°
2026-05-05 16:15 21.75468 116.84228 41010 ft 481 kts 69°
2026-05-05 16:16 21.80315 116.97652 41006 ft 481 kts 67°
2026-05-05 16:17 21.83972 117.07671 41008 ft 482 kts 67°
2026-05-05 16:18 21.87612 117.17769 41007 ft 482 kts 67°
2026-05-05 16:19 21.91211 117.27784 41007 ft 473 kts 68°
2026-05-05 16:19 21.94762 117.37679 41008 ft 472 kts 68°
2026-05-05 16:20 21.99729 117.50761 41010 ft 471 kts 58°
2026-05-05 16:22 22.08182 117.65895 41011 ft 472 kts 56°
2026-05-05 16:23 22.15049 117.77968 41001 ft 472 kts 57°
2026-05-05 16:23 22.20177 117.87038 40998 ft 472 kts 57°
2026-05-05 16:24 22.23571 117.93049 40997 ft 472 kts 57°
2026-05-05 16:25 22.28695 118.02129 40997 ft 472 kts 56°
2026-05-05 16:25 22.33944 118.11121 41000 ft 472 kts 56°
2026-05-05 16:26 22.40960 118.23117 40999 ft 472 kts 56°
2026-05-05 16:27 22.44401 118.29169 41001 ft 473 kts 57°
2026-05-05 16:27 22.47823 118.35244 41000 ft 473 kts 57°
2026-05-05 16:28 22.51249 118.41318 40998 ft 473 kts 57°
2026-05-05 16:28 22.54683 118.47399 40998 ft 474 kts 57°
2026-05-05 16:29 22.58122 118.53482 41001 ft 475 kts 56°
2026-05-05 16:29 22.61631 118.59633 40995 ft 486 kts 56°
2026-05-05 16:30 22.65217 118.65920 40990 ft 492 kts 56°
2026-05-05 16:30 22.68805 118.72228 40991 ft 492 kts 57°
2026-05-05 16:31 22.72365 118.78500 40989 ft 492 kts 57°
2026-05-05 16:31 22.75949 118.84819 40989 ft 492 kts 57°
2026-05-05 16:32 22.79531 118.91142 40989 ft 493 kts 57°
2026-05-05 16:32 22.83116 118.97477 40989 ft 493 kts 57°
2026-05-05 16:33 22.86714 119.03842 40992 ft 500 kts 57°
2026-05-05 16:33 22.90389 119.10351 40991 ft 511 kts 57°
2026-05-05 16:34 22.94129 119.16985 40990 ft 517 kts 57°
2026-05-05 16:34 22.97877 119.23645 40997 ft 517 kts 57°
2026-05-05 16:35 23.01619 119.30304 40997 ft 517 kts 57°
2026-05-05 16:35 23.05362 119.36968 41000 ft 517 kts 57°
2026-05-05 16:36 23.09103 119.43639 40998 ft 517 kts 57°
2026-05-05 16:36 23.12842 119.50316 41000 ft 518 kts 57°
2026-05-05 16:37 23.16584 119.57006 40990 ft 518 kts 57°
2026-05-05 16:37 23.20327 119.63700 40990 ft 518 kts 57°
2026-05-05 16:38 23.24067 119.70399 40998 ft 519 kts 57°
2026-05-05 16:38 23.27808 119.77109 40999 ft 519 kts 57°
2026-05-05 16:39 23.31547 119.83824 40998 ft 519 kts 57°
2026-05-05 16:39 23.35303 119.90469 40999 ft 519 kts 53°
2026-05-05 16:40 23.40062 119.96312 41000 ft 515 kts 42°
2026-05-05 16:40 23.45139 120.01824 41003 ft 518 kts 47°
2026-05-05 16:41 23.49032 120.08431 40998 ft 521 kts 63°
2026-05-05 16:41 23.51983 120.15647 40998 ft 522 kts 66°
2026-05-05 16:42 23.54721 120.22981 40999 ft 522 kts 67°
2026-05-05 16:42 23.57469 120.30308 41002 ft 522 kts 66°
2026-05-05 16:43 23.60254 120.37622 41005 ft 522 kts 66°
2026-05-05 16:43 23.63055 120.44939 41007 ft 522 kts 66°
2026-05-05 16:44 23.65849 120.52245 41008 ft 522 kts 66°
2026-05-05 16:44 23.68641 120.59562 41011 ft 522 kts 66°
2026-05-05 16:45 23.71424 120.66872 41012 ft 522 kts 66°
2026-05-05 16:45 23.74205 120.74188 41011 ft 522 kts 66°
2026-05-05 16:46 23.76982 120.81508 41011 ft 522 kts 66°
2026-05-05 16:46 23.79754 120.88824 41010 ft 522 kts 67°
2026-05-05 16:47 23.82520 120.96142 41009 ft 521 kts 67°
2026-05-05 16:47 23.85285 121.03465 41003 ft 521 kts 67°
2026-05-05 16:48 23.88028 121.10744 41009 ft 521 kts 67°
2026-05-05 16:48 23.90784 121.18067 41010 ft 521 kts 67°
2026-05-05 16:49 23.93539 121.25399 41008 ft 521 kts 67°
2026-05-05 16:49 23.96289 121.32733 41002 ft 522 kts 67°
2026-05-05 16:50 23.99038 121.40073 41005 ft 522 kts 67°
2026-05-05 16:50 24.01782 121.47415 41008 ft 522 kts 67°
2026-05-05 16:51 24.04529 121.54779 41006 ft 523 kts 67°
2026-05-05 16:51 24.07275 121.62152 40990 ft 523 kts 67°
2026-05-05 16:52 24.10017 121.69526 40975 ft 523 kts 67°
2026-05-05 16:52 24.12749 121.76883 40970 ft 523 kts 67°
2026-05-05 16:53 24.15482 121.84258 40971 ft 523 kts 67°
2026-05-05 16:53 24.18211 121.91636 40971 ft 523 kts 67°
2026-05-05 16:54 24.20223 121.97929 40971 ft 523 kts 73°
2026-05-05 16:54 24.22084 122.05578 40970 ft 523 kts 76°
2026-05-05 16:55 24.23810 122.13317 40963 ft 523 kts 76°
2026-05-05 16:55 24.25529 122.21066 40961 ft 523 kts 76°
2026-05-05 16:56 24.27262 122.28805 40958 ft 523 kts 76°
2026-05-05 16:56 24.29003 122.36547 40961 ft 523 kts 76°
2026-05-05 16:57 24.30743 122.44300 40953 ft 524 kts 76°
2026-05-05 16:57 24.32479 122.52057 40952 ft 524 kts 76°
2026-05-05 16:58 24.34209 122.59808 40944 ft 524 kts 76°
2026-05-05 16:58 24.35936 122.67567 40943 ft 524 kts 76°
2026-05-05 16:59 24.37658 122.75326 40943 ft 524 kts 76°
2026-05-05 16:59 24.39377 122.83090 40943 ft 524 kts 76°
2026-05-05 17:00 24.41092 122.90853 40943 ft 524 kts 77°
2026-05-05 17:00 24.42803 122.98621 40935 ft 524 kts 77°
2026-05-05 17:01 24.44510 123.06389 40934 ft 524 kts 77°
2026-05-05 17:01 24.46212 123.14156 40943 ft 524 kts 77°
2026-05-05 17:02 24.47911 123.21927 40943 ft 524 kts 77°
2026-05-05 17:02 24.49605 123.29698 40943 ft 523 kts 77°
2026-05-05 17:03 24.51293 123.37465 40943 ft 523 kts 77°
2026-05-05 17:03 24.52978 123.45234 40943 ft 523 kts 77°
2026-05-05 17:04 24.54659 123.53006 40943 ft 523 kts 77°
2026-05-05 17:04 24.56336 123.60779 40943 ft 523 kts 77°
2026-05-05 17:05 24.58009 123.68553 40943 ft 523 kts 77°
2026-05-05 17:05 24.59678 123.76330 40943 ft 523 kts 77°
2026-05-05 17:06 24.61342 123.84107 40943 ft 523 kts 77°
2026-05-05 17:06 24.63002 123.91883 40943 ft 523 kts 77°
2026-05-05 17:07 24.64649 123.99622 40943 ft 523 kts 77°
2026-05-05 17:07 24.66301 124.07403 40943 ft 522 kts 77°
2026-05-05 17:08 24.67949 124.15184 40943 ft 522 kts 77°
2026-05-05 17:08 24.69591 124.22963 40951 ft 522 kts 77°
2026-05-05 17:09 24.71229 124.30741 40955 ft 522 kts 77°
2026-05-05 17:09 24.72866 124.38533 40961 ft 523 kts 77°
2026-05-05 17:10 24.74498 124.46325 40961 ft 523 kts 77°
2026-05-05 17:10 24.76126 124.54119 40961 ft 523 kts 77°
2026-05-05 17:11 24.77750 124.61914 40970 ft 523 kts 77°
2026-05-05 17:11 24.79370 124.69713 40973 ft 523 kts 78°
2026-05-05 17:12 24.80985 124.77513 40972 ft 523 kts 78°
2026-05-05 17:12 24.82416 124.85348 40974 ft 522 kts 85°
2026-05-05 17:13 24.82256 124.93231 40979 ft 518 kts 97°
2026-05-05 17:13 24.81355 125.01101 40988 ft 518 kts 100°
2026-05-05 17:14 24.80322 125.08948 40989 ft 518 kts 100°
2026-05-05 17:14 24.79307 125.16799 40964 ft 518 kts 100°
2026-05-05 17:15 24.78421 125.24661 40960 ft 519 kts 93°
2026-05-05 17:15 24.78662 125.28629 40966 ft 521 kts 80°
2026-05-05 17:15 24.79726 125.32428 40960 ft 520 kts 65°
2026-05-05 17:16 24.83252 125.39378 40961 ft 521 kts 57°
2026-05-05 17:16 24.87144 125.46121 40961 ft 522 kts 56°
2026-05-05 17:17 24.91049 125.52855 40964 ft 522 kts 57°
2026-05-05 17:17 24.94908 125.59626 40964 ft 521 kts 57°
2026-05-05 17:18 24.98732 125.66400 40834 ft 515 kts 57°
2026-05-05 17:18 25.00602 125.69724 40435 ft 509 kts 57°
2026-05-05 17:18 25.02479 125.73059 39494 ft 515 kts 57°
2026-05-05 17:19 25.04379 125.76437 38492 ft 521 kts 57°
2026-05-05 17:19 25.06271 125.79801 37568 ft 525 kts 58°
2026-05-05 17:19 25.08200 125.83237 36714 ft 527 kts 58°
2026-05-05 17:19 25.10128 125.86670 35951 ft 526 kts 58°
2026-05-05 17:20 25.12050 125.90095 35198 ft 525 kts 58°
2026-05-05 17:20 25.13969 125.93516 34416 ft 524 kts 58°
2026-05-05 17:20 25.15889 125.96945 33549 ft 526 kts 58°
2026-05-05 17:20 25.17814 126.00384 32649 ft 527 kts 58°
2026-05-05 17:21 25.19741 126.03824 31724 ft 528 kts 58°
2026-05-05 17:21 25.21667 126.07268 30970 ft 525 kts 58°
2026-05-05 17:21 25.23577 126.10687 30301 ft 520 kts 58°
2026-05-05 17:22 25.27341 126.17428 28969 ft 511 kts 58°
2026-05-05 17:22 25.29197 126.20758 28302 ft 507 kts 58°
2026-05-05 17:22 25.31035 126.24056 27650 ft 502 kts 58°
2026-05-05 17:22 25.32855 126.27327 26986 ft 497 kts 58°
2026-05-05 17:23 25.34658 126.30569 26343 ft 492 kts 58°
2026-05-05 17:23 25.36442 126.33778 25702 ft 487 kts 58°
2026-05-05 17:23 25.38206 126.36953 25064 ft 482 kts 58°
2026-05-05 17:23 25.39955 126.40103 24426 ft 477 kts 58°
2026-05-05 17:24 25.41680 126.43213 23784 ft 472 kts 58°
2026-05-05 17:24 25.43389 126.46293 23150 ft 467 kts 58°
2026-05-05 17:24 25.45078 126.49340 22515 ft 462 kts 58°
2026-05-05 17:24 25.46747 126.52355 21882 ft 457 kts 59°
2026-05-05 17:25 25.48397 126.55340 21253 ft 452 kts 59°
2026-05-05 17:25 25.49474 126.57297 20841 ft 448 kts 59°
2026-05-05 17:25 25.51628 126.61214 20003 ft 441 kts 59°
2026-05-05 17:25 25.53212 126.64100 19384 ft 436 kts 59°
2026-05-05 17:26 25.54781 126.66960 18760 ft 432 kts 59°
2026-05-05 17:26 25.56330 126.69784 18141 ft 427 kts 59°
2026-05-05 17:26 25.57864 126.72578 17527 ft 422 kts 59°
2026-05-05 17:26 25.59380 126.75347 16909 ft 417 kts 59°
2026-05-05 17:27 25.60876 126.78078 16298 ft 413 kts 59°
2026-05-05 17:27 25.62356 126.80782 15699 ft 408 kts 59°
2026-05-05 17:27 25.63817 126.83449 15086 ft 403 kts 59°
2026-05-05 17:27 25.65261 126.86086 14481 ft 398 kts 59°
2026-05-05 17:28 25.66685 126.88693 13894 ft 393 kts 59°
2026-05-05 17:28 25.68091 126.91268 13293 ft 388 kts 59°
2026-05-05 17:28 25.69457 126.93778 12722 ft 383 kts 60°
2026-05-05 17:28 25.70789 126.96223 12164 ft 377 kts 59°
2026-05-05 17:29 25.72006 126.98449 11639 ft 373 kts 60°
2026-05-05 17:29 25.73324 127.00867 11379 ft 358 kts 60°
2026-05-05 17:29 25.74583 127.03177 11241 ft 341 kts 60°
2026-05-05 17:29 25.75782 127.05375 11121 ft 326 kts 60°
2026-05-05 17:30 25.76926 127.07478 10969 ft 311 kts 60°
2026-05-05 17:30 25.78018 127.09487 10843 ft 297 kts 60°
2026-05-05 17:30 25.79067 127.11415 10655 ft 289 kts 60°
2026-05-05 17:30 25.80103 127.13320 10372 ft 287 kts 60°
2026-05-05 17:31 25.81130 127.15215 10078 ft 286 kts 60°
2026-05-05 17:31 25.82159 127.17114 9775 ft 293 kts 60°
2026-05-05 17:31 25.83229 127.19091 9688 ft 303 kts 60°
2026-05-05 17:31 25.84304 127.21074 9309 ft 299 kts 60°
2026-05-05 17:32 25.85380 127.23059 8803 ft 300 kts 60°
2026-05-05 17:32 25.86450 127.25038 8442 ft 297 kts 60°
2026-05-05 17:32 25.87515 127.26999 8112 ft 295 kts 60°
2026-05-05 17:32 25.88571 127.28947 7776 ft 293 kts 60°
2026-05-05 17:33 25.89545 127.30922 7456 ft 290 kts 69°
2026-05-05 17:33 25.90167 127.33035 7135 ft 287 kts 76°
2026-05-05 17:33 25.90669 127.35169 6823 ft 284 kts 77°
2026-05-05 17:33 25.91155 127.37291 6502 ft 283 kts 77°
2026-05-05 17:34 25.91641 127.39398 6186 ft 281 kts 77°
2026-05-05 17:34 25.92127 127.41492 6008 ft 279 kts 77°
2026-05-05 17:34 25.92610 127.43571 5759 ft 276 kts 77°
2026-05-05 17:34 25.93092 127.45645 5277 ft 277 kts 77°
2026-05-05 17:35 25.93571 127.47698 4910 ft 272 kts 77°
2026-05-05 17:35 25.94042 127.49724 4592 ft 270 kts 76°
2026-05-05 17:35 25.94512 127.51732 4269 ft 267 kts 76°
2026-05-05 17:35 25.94980 127.53725 3959 ft 266 kts 76°
2026-05-05 17:36 25.95433 127.55674 3643 ft 262 kts 76°
2026-05-05 17:36 25.95910 127.57621 3318 ft 260 kts 72°
2026-05-05 17:36 25.96795 127.59359 3003 ft 261 kts 49°
2026-05-05 17:36 25.98190 127.60617 2744 ft 254 kts 35°
2026-05-05 17:37 25.99624 127.61667 2635 ft 239 kts 34°
2026-05-05 17:37 26.00551 127.62337 2566 ft 230 kts 35°
2026-05-05 17:37 26.02259 127.63587 2418 ft 214 kts 35°
2026-05-05 17:37 26.03483 127.64463 2311 ft 205 kts 32°
2026-05-05 17:38 26.04758 127.65097 2212 ft 198 kts 19°
2026-05-05 17:38 26.06077 127.65345 2123 ft 188 kts
2026-05-05 17:38 26.07345 127.65273 2036 ft 177 kts 349°
2026-05-05 17:38 26.08506 127.65046 1944 ft 166 kts 356°
2026-05-05 17:39 26.09644 127.64989 1743 ft 161 kts
2026-05-05 17:39 26.10728 127.64920 1518 ft 152 kts 360°
2026-05-05 17:39 26.11781 127.64879 1324 ft 151 kts 359°
2026-05-05 17:39 26.12802 127.64830 1124 ft 142 kts 359°
2026-05-05 17:40 26.13757 127.64787 940 ft 133 kts 359°
2026-05-05 17:40 26.14665 127.64774 725 ft 129 kts
2026-05-05 17:40 26.15565 127.64759 575 ft 131 kts
2026-05-05 17:40 26.16475 127.64730 435 ft 131 kts 359°
2026-05-05 17:41 26.17385 127.64685 247 ft 130 kts 358°
2026-05-05 17:41 26.18293 127.64642 73 ft 130 kts 359°
2026-05-05 17:41 26.18879 127.64622 26 ft 123 kts 358°
2026-05-05 17:41 26.19602 127.64589 22 ft 22 kts 359°
2026-05-05 17:42 26.19629 127.64590 22 ft 9 kts
2026-05-05 17:42 26.19756 127.64615 22 ft 20 kts 20°
2026-05-05 17:42 26.19889 127.64681 22 ft 22 kts 26°
2026-05-05 17:42 26.20019 127.64755 23 ft 18 kts 19°
2026-05-05 17:43 26.20144 127.64772 24 ft 18 kts 355°
2026-05-05 17:43 26.20280 127.64761 23 ft 20 kts 356°
2026-05-05 17:43 26.20384 127.64757 24 ft 15 kts 358°
2026-05-05 17:43 26.20457 127.64754 24 ft 9 kts
2026-05-05 17:44 26.20482 127.64773 28 ft 3 kts 50°
2026-05-05 17:44 26.20487 127.64785 26 ft 1 kts 63°
2026-05-05 17:44 26.20491 127.64801 27 ft 0 kts 82°
2026-05-05 17:44 26.20492 127.64829 27 ft 0 kts 86°